Theta_e
286 278 273 278 280 280 278 277 275 278 284 280 279 279 282 285 283 281 281 282 282 284 286 287 287 287 286 286 287 287 287 288 289 289 290 290 290 292 294 296 299 302 304 306
280 275 282 284 283 281 278 272 272 279 282 280 278 278 282 283 282 282 281 281 282 283 284 285 285 286 285 285 285 286 287 287 289 289 291 291 291 293 294 296 298 300 302 305
276 282 285 283 281 278 277 272 273 276 279 278 276 274 277 281 282 283 282 281 281 282 282 283 284 284 284 283 284 285 286 286 288 290 291 291 292 295 295 296 297 300 302 303
278 284 282 281 279 279 270 280 280 278 270 265 276 266 274 278 280 282 279 280 280 281 281 283 283 283 283 283 284 284 285 286 288 289 289 288 288 290 294 296 297 300 302 305
275 280 280 277 280 280 277 281 279 277 265 268 269 264 273 277 277 279 279 280 280 281 281 281 282 283 283 283 282 283 284 285 286 288 288 288 289 292 295 297 297 298 300 302
277 284 280 280 282 281 282 276 274 273 266 260 265 265 270 273 276 276 279 279 280 280 281 281 282 282 282 282 282 282 283 285 287 287 287 288 290 291 293 294 297 298 299 302
276 278 281 282 278 280 276 265 260 260 258 262 261 266 271 276 278 278 277 279 279 280 279 279 280 280 281 281 281 282 283 283 285 286 287 289 289 290 290 298 297 298 300 303
265 268 273 281 278 272 274 267 262 256 259 261 262 263 271 277 279 279 279 279 280 279 279 279 280 280 280 280 280 280 280 281 284 285 286 288 290 288 292 299 300 302 301 303
266 269 279 281 282 278 271 267 274 260 258 260 262 267 275 278 274 276 276 278 277 277 278 278 279 279 279 279 279 279 279 281 282 283 285 287 288 287 289 296 299 299 300 303
274 266 273 278 281 278 272 276 265 263 256 254 259 257 268 267 271 274 274 274 275 275 277 277 277 279 279 279 279 279 279 279 281 283 284 286 287 289 288 295 296 297 299 300
272 267 269 277 269 268 269 265 265 265 267 259 259 264 268 270 269 271 271 274 273 272 275 275 276 278 279 279 278 278 278 278 280 282 283 285 286 288 290 292 294 296 296 296
279 273 264 269 276 278 274 268 271 265 260 264 265 266 268 268 267 266 272 273 272 270 273 273 276 276 277 277 277 277 278 278 279 281 283 284 286 287 288 290 292 294 294 295
279 267 261 268 272 276 271 275 274 268 271 264 261 265 266 262 265 268 269 273 270 269 271 272 273 275 275 276 276 277 277 278 278 280 282 283 284 285 287 288 290 292 293 292
283 275 268 268 267 267 269 273 276 271 263 264 267 270 275 274 271 268 269 269 268 267 267 267 268 271 273 275 276 276 277 278 278 280 281 282 283 285 286 287 288 289 290 290
278 265 271 273 272 269 272 272 273 270 271 266 273 266 273 276 276 271 267 262 261 266 266 263 266 268 271 273 275 276 277 277 278 278 280 281 283 284 286 286 286 287 287 287
279 266 266 264 274 274 271 273 273 271 273 271 273 272 279 280 266 266 270 262 263 261 265 264 263 266 270 271 273 275 276 276 278 278 279 281 282 283 283 284 285 285 285 285
274 267 262 261 268 266 266 268 272 268 265 272 264 272 259 267 263 265 269 262 266 264 261 264 263 264 267 268 271 273 276 277 278 278 280 281 281 282 282 283 283 283 283 284
270 267 264 262 260 258 272 274 272 269 270 269 268 268 268 269 267 266 265 265 266 263 261 262 263 262 264 267 270 274 276 277 277 278 280 280 280 281 282 282 282 282 283 283
276 271 264 260 252 266 273 274 273 271 272 275 274 275 271 269 273 272 271 269 268 265 265 266 264 264 265 266 270 273 275 276 277 277 279 281 281 281 281 281 281 282 282 283
277 276 270 255 258 258 272 274 277 276 269 275 276 276 276 275 269 270 276 276 275 274 273 273 273 272 271 271 274 275 273 275 275 276 279 281 282 281 280 281 281 282 282 282
268 269 269 265 261 264 274 276 276 266 272 277 278 278 277 275 275 274 278 275 275 274 273 273 272 271 270 271 273 273 273 272 274 277 279 280 281 281 281 281 281 281 280 280
267 266 264 263 260 262 276 275 273 278 277 279 278 278 278 277 275 275 275 274 273 272 272 273 272 271 270 270 271 271 271 271 273 277 278 278 279 280 280 280 280 280 279 278
267 271 266 269 269 276 277 278 280 279 279 278 277 279 278 277 274 274 273 273 272 272 273 271 270 270 268 268 269 269 268 270 272 274 276 276 277 277 278 278 278 277 278 277
270 272 270 269 277 276 279 280 280 280 279 280 279 279 277 275 272 273 270 271 270 270 269 266 266 267 267 267 267 264 266 267 268 273 272 273 274 275 275 277 277 275 274 273
272 273 270 270 277 278 279 280 281 281 281 279 277 278 278 275 274 274 272 270 270 270 265 264 266 265 264 263 264 262 265 264 271 274 271 272 272 272 274 275 275 276 275 274
271 272 273 276 283 281 282 283 280 280 279 278 278 273 273 275 276 273 272 272 272 270 267 265 265 265 263 262 262 262 262 264 267 269 270 271 271 270 272 272 275 280 279 280
Wind_Speed
5 6 2 4 3 3 3 3 5 7 7 6 8 14 23 15 7 4 6 5 2 6 6 7 6 7 7 8 10 12 13 13 11 7 6 8 8 9 10 10 13 12 10 11
6 1 3 2 0 1 2 1 7 7 3 6 5 17 17 8 4 6 7 4 4 7 8 7 9 10 10 11 12 14 14 15 11 10 10 10 11 10 11 10 13 14 13 12
5 0 3 2 2 2 4 5 3 5 6 5 8 9 5 3 1 5 5 2 4 6 9 9 12 13 13 13 12 13 14 16 13 14 11 11 12 10 10 9 10 12 13 13
3 2 2 2 3 5 3 4 3 3 5 3 5 8 6 3 4 5 1 4 7 8 8 9 13 14 14 15 13 13 14 15 14 14 14 16 14 13 10 11 10 11 11 12
6 3 3 2 4 5 8 4 4 1 3 4 5 4 10 2 6 8 6 6 8 8 9 11 13 14 15 14 13 12 14 14 15 13 15 13 15 12 11 10 16 14 13 12
5 2 2 3 2 2 4 5 6 4 4 4 5 5 10 4 5 2 3 6 8 9 9 11 12 13 14 13 12 12 13 15 12 14 16 15 16 16 13 16 12 10 9 9
5 2 1 1 1 3 7 8 6 8 6 7 4 2 15 6 5 6 5 8 9 8 9 10 12 12 14 15 15 13 14 15 14 14 15 15 16 14 18 16 7 8 8 7
4 8 2 1 2 5 2 7 7 6 3 7 3 8 10 6 6 4 5 8 9 9 8 9 10 11 12 14 14 14 15 16 14 14 15 13 13 9 13 7 3 4 6 5
4 6 0 2 2 5 4 1 3 5 1 3 4 10 13 1 4 7 7 7 9 8 9 10 9 10 11 11 12 13 14 15 13 14 13 12 11 11 14 11 4 2 4 2
4 3 1 3 3 4 5 2 4 4 2 7 8 8 9 6 10 11 8 9 9 6 11 10 7 10 10 10 10 12 12 13 15 13 11 11 10 10 12 10 4 4 3 4
5 4 6 3 5 9 1 2 3 4 4 6 5 10 11 11 9 10 9 9 9 9 11 8 10 8 9 10 11 12 12 14 13 12 11 11 11 9 9 8 5 3 5 6
4 4 4 11 2 5 5 7 6 6 7 4 3 14 5 8 8 6 10 9 8 8 9 7 9 7 9 11 12 12 13 13 13 13 13 11 9 9 8 6 6 4 3 3
5 2 4 10 6 3 3 5 4 3 2 7 5 13 4 3 6 8 11 11 8 8 10 7 6 8 9 11 12 12 13 13 13 12 12 11 9 8 8 7 6 5 3 2
4 4 8 9 8 4 4 5 7 6 4 5 15 18 28 14 11 7 10 10 9 8 8 8 6 6 7 10 11 11 12 11 12 12 10 10 9 8 6 6 6 5 5 4
4 5 3 10 8 6 14 15 13 14 13 10 23 10 22 21 15 9 6 4 5 7 8 6 7 7 7 9 11 11 11 11 11 11 9 8 8 7 5 5 6 6 7 6
4 5 2 6 8 12 15 17 20 20 20 18 24 27 29 26 7 7 8 4 7 6 9 7 7 7 8 8 10 11 11 11 11 9 9 8 7 6 6 6 6 7 7 7
5 3 3 7 5 9 12 12 14 6 5 15 10 21 2 8 6 7 8 6 8 7 6 8 5 6 7 7 8 10 11 10 10 9 9 9 8 8 7 7 9 9 9 10
6 5 2 5 6 3 10 4 7 10 8 17 10 11 10 9 8 8 6 6 7 7 6 7 4 5 5 6 7 8 9 9 9 11 10 10 8 8 8 9 10 9 9 10
4 4 1 2 4 11 12 2 6 8 10 16 21 18 6 4 4 8 4 7 6 6 5 5 4 3 3 5 7 6 8 9 10 11 11 10 10 10 10 10 10 8 9 10
4 1 4 3 3 8 7 2 3 4 9 3 12 12 6 4 3 6 4 5 6 6 4 3 1 1 4 5 7 5 7 9 10 11 10 10 10 11 11 11 10 9 10 10
4 2 11 5 5 13 14 10 2 6 9 1 5 6 7 6 7 2 5 5 5 6 6 3 2 2 3 4 4 5 5 8 9 9 9 10 10 10 9 10 10 9 10 10
11 10 6 4 3 13 11 6 11 9 3 7 8 7 8 7 4 5 7 7 7 8 5 4 3 0 3 3 3 4 5 6 7 7 8 9 9 8 8 9 9 10 9 10
4 11 10 13 15 7 9 7 11 1 4 4 3 5 9 7 8 8 7 9 8 8 6 3 4 2 2 3 3 3 3 6 6 5 6 7 8 8 8 8 8 7 7 7
6 5 4 3 13 22 19 18 12 7 11 11 8 7 7 8 7 9 6 7 7 6 7 4 4 3 2 0 2 1 2 4 3 3 5 4 6 7 7 6 6 6 5 5
7 10 8 10 24 11 22 19 17 17 13 11 9 11 12 8 8 9 7 8 8 7 5 4 6 5 5 3 2 2 2 3 1 3 3 4 4 4 5 6 4 5 6 6
8 10 8 14 25 10 17 9 6 12 13 12 11 6 10 10 13 8 8 8 8 8 6 5 6 5 5 4 3 2 3 1 3 3 2 2 2 2 4 4 6 16 15 15
Wind_Direction
2 64 174 208 164 139 163 229 240 262 271 310 248 280 286 297 277 232 173 181 282 331 298 311 311 313 301 308 312 312 310 307 299 293 291 290 288 284 279 279 277 279 265 252
20 180 193 151 184 237 182 176 271 288 307 334 305 286 293 295 234 177 173 182 351 313 312 315 326 324 313 309 305 308 306 307 302 294 284 288 285 274 270 270 275 271 271 265
149 205 149 94 2 359 239 189 242 248 321 257 305 292 313 335 77 144 114 42 320 299 308 311 320 320 314 308 306 304 303 300 294 296 293 291 285 276 273 263 264 260 256 254
207 317 143 54 267 135 300 186 262 286 40 272 43 281 297 282 206 198 204 325 315 328 304 303 315 311 310 311 308 305 301 302 296 302 292 288 287 282 277 275 269 270 268 262
257 171 198 137 230 139 236 342 302 160 128 39 319 64 268 272 236 228 242 306 326 298 288 305 314 310 309 307 308 304 299 294 296 299 297 288 285 284 283 277 269 256 261 261
231 325 173 220 287 231 316 17 33 49 95 14 241 122 279 237 220 210 260 297 285 296 311 308 303 303 302 306 307 303 299 295 303 302 297 286 285 289 285 280 251 246 255 256
337 254 273 196 348 19 50 49 343 351 5 227 323 355 245 257 228 208 261 303 296 294 303 297 301 307 313 316 313 310 309 305 305 304 297 295 292 294 287 275 235 244 257 249
118 326 142 342 153 180 69 135 148 247 265 276 359 238 255 231 193 212 256 270 280 276 277 285 301 306 307 309 307 310 312 310 313 310 302 299 293 289 294 308 287 256 244 244
126 280 220 56 83 109 258 69 150 99 103 26 253 288 294 152 286 264 267 274 281 288 300 294 297 293 293 300 311 315 312 308 308 303 304 305 301 298 292 300 303 306 312 35
186 346 263 280 91 10 145 155 46 4 338 297 288 280 246 281 253 252 276 279 283 302 294 297 294 286 293 305 313 312 309 307 305 305 307 304 297 292 288 285 272 8 338 0
127 101 285 59 199 182 17 349 45 127 149 189 291 268 223 232 228 230 243 260 270 284 282 300 288 284 305 314 319 317 316 313 310 311 308 303 305 297 282 294 336 315 1 10
198 139 243 224 250 199 173 185 158 132 263 233 197 266 237 235 240 207 253 263 274 264 282 290 281 297 324 323 326 323 320 317 313 313 311 310 307 309 310 315 336 307 345 5
180 306 353 339 5 353 213 204 162 131 106 206 152 264 308 299 284 248 255 274 275 286 300 297 317 332 325 326 324 323 320 320 316 317 316 314 320 323 324 326 320 346 346 353
168 197 188 215 211 146 217 218 207 149 162 196 232 276 288 290 260 274 269 250 271 272 290 298 315 311 312 327 322 322 320 323 320 319 321 324 325 327 329 341 358 16 17 19
137 215 249 267 258 216 242 249 226 207 215 200 262 222 267 283 293 265 263 281 281 282 304 299 318 320 323 325 326 327 324 325 324 323 328 332 329 336 352 15 26 38 42 37
176 262 106 282 264 266 264 248 243 228 236 244 254 274 269 276 306 283 272 272 271 277 283 297 303 313 324 327 326 325 330 329 325 331 343 349 350 2 18 23 36 55 58 53
171 162 60 269 335 315 286 242 227 179 204 216 203 236 5 283 260 254 266 219 243 246 261 291 286 302 309 317 316 329 329 325 338 348 358 6 9 24 30 43 53 53 59 63
150 127 113 269 358 309 245 181 173 189 212 214 266 262 238 247 255 259 226 202 233 233 252 271 279 303 307 309 312 327 337 338 352 3 7 16 15 32 44 54 56 56 58 63
168 128 267 224 204 295 290 136 146 175 280 207 220 249 264 268 284 292 202 200 203 199 215 225 247 249 298 311 310 332 348 352 5 3 10 23 29 36 40 49 51 54 64 62
143 144 155 84 186 242 241 110 170 162 288 248 186 226 204 146 359 262 164 181 188 196 198 200 280 356 3 342 326 357 360 3 4 353 3 18 33 43 45 44 41 43 52 56
150 185 215 207 253 280 252 233 354 81 243 34 204 226 161 192 209 226 140 174 176 175 192 161 107 21 19 345 329 18 9 12 336 342 10 24 26 39 41 49 43 45 48 50
168 161 196 135 201 276 174 74 173 223 251 184 196 207 214 215 212 197 199 191 186 170 188 176 167 102 26 11 355 46 17 337 334 347 22 24 27 36 32 43 44 44 45 48
231 193 183 188 212 244 200 231 228 238 238 251 246 239 222 211 213 198 207 209 198 186 183 183 178 179 46 38 12 61 357 334 342 7 27 34 39 39 40 41 47 47 42 48
247 163 216 84 243 240 242 249 251 234 235 244 226 215 190 216 209 217 201 212 193 196 176 179 151 212 234 111 78 217 315 324 331 40 35 30 56 56 49 69 60 60 59 62
189 145 186 258 275 279 266 248 250 254 248 241 242 222 215 196 221 211 201 206 201 193 165 177 180 189 218 202 213 271 341 353 75 52 55 50 44 50 74 69 55 85 106 100
184 178 195 249 260 243 268 261 208 223 238 232 231 245 235 195 219 190 206 197 185 187 167 179 191 170 207 202 220 257 300 327 164 144 130 140 111 61 60 65 81 73 72 68